FW3266 Weather Reports


Display with metric or nautical units.
time (UTC)temp
F
wind
direction
speed
MPH
gust
MPH
rain 1hr
in
rain 24hr
in
rain mn
in
humidity
%
barometer
mb
20260504223904 64 228 6.0 13.0 0.00 0.00 0.00 49 1009.2
20260504223358 64 226 6.0 13.0 0.00 0.00 0.00 49 1009.0
20260504222859 64 235 6.0 13.0 0.00 0.00 0.00 49 1009.1
20260504222352 65 181 6.0 22.0 0.00 0.00 0.00 49 1008.9
20260504221852 65 245 9.0 22.0 0.00 0.00 0.00 48 1008.9
20260504221350 65 254 5.0 12.0 0.00 0.00 0.00 47 1008.8
20260504220841 65 250 6.0 11.0 0.00 0.00 0.00 47 1008.9
20260504220336 66 227 6.0 12.0 0.00 0.00 0.00 46 1008.8
20260504215830 66 248 7.0 13.0 0.00 0.00 0.00 45 1008.9
20260504215325 66 236 6.0 13.0 0.00 0.00 0.00 45 1008.9
20260504214826 66 193 6.0 11.0 0.00 0.00 0.00 45 1008.9
20260504214319 66 247 6.0 11.0 0.00 0.00 0.00 45 1008.9
20260504213819 66 238 7.0 10.0 0.00 0.00 0.00 44 1008.9
20260504213315 67 263 6.0 13.0 0.00 0.00 0.00 43 1008.8
20260504212809 67 236 6.0 15.0 0.00 0.00 0.00 43 1008.8
20260504212309 67 207 6.0 17.0 0.00 0.00 0.00 44 1008.8
20260504211804 67 218 6.0 18.0 0.00 0.00 0.00 42 1008.7
20260504211257 68 246 6.0 18.0 0.00 0.00 0.00 40 1008.8
20260504210757 67 245 7.0 13.0 0.00 0.00 0.00 40 1008.7
20260504210253 68 249 6.0 13.0 0.00 0.00 0.00 40 1008.7
20260504205753 68 230 6.0 12.0 0.00 0.00 0.00 41 1008.7
20260504205249 68 226 5.0 15.0 0.00 0.00 0.00 40 1008.7
20260504205028 68 271 7.0 15.0 0.00 0.00 0.00 41 1008.6
20260504204242 68 224 6.0 11.0 0.00 0.00 0.00 40 1008.6
20260504203750 68 240 6.0 10.0 0.00 0.00 0.00 38 1008.6
20260504203744 68 235 6.0 11.0 0.00 0.00 0.00 40 1008.6
20260504203008 68 262 6.0 11.0 0.00 0.00 0.00 38 1008.5
20260504202226 68 246 6.0 12.0 0.00 0.00 0.00 38 1008.5
20260504201720 68 259 8.0 12.0 0.00 0.00 0.00 37 1008.5
20260504201215 69 257 5.0 11.0 0.00 0.00 0.00 38 1008.5
20260504200708 69 228 7.0 13.0 0.00 0.00 0.00 37 1008.7
20260504200204 69 231 7.0 13.0 0.00 0.00 0.00 39 1008.7
20260504195656 69 248 8.0 19.0 0.00 0.00 0.00 39 1008.6
20260504195156 69 262 9.0 19.0 0.00 0.00 0.00 38 1008.5
20260504194653 69 219 5.0 16.0 0.00 0.00 0.00 39 1008.6
20260504194149 69 221 7.0 15.0 0.00 0.00 0.00 37 1008.5
20260504193645 70 231 8.0 15.0 0.00 0.00 0.00 36 1008.6
20260504193141 71 231 6.0 10.0 0.00 0.00 0.00 35 1008.4
20260504192637 71 243 5.0 12.0 0.00 0.00 0.00 32 1008.7
20260504192414 71 230 6.0 16.0 0.00 0.00 0.00 31 1008.6
20260504191631 71 258 5.0 16.0 0.00 0.00 0.00 32 1008.6
20260504191159 71 199 5.0 13.0 0.00 0.00 0.00 31 1008.7
20260504191148 71 258 8.0 14.0 0.00 0.00 0.00 31 1008.6
20260504190353 71 297 7.0 13.0 0.00 0.00 0.00 32 1008.6
20260504185621 71 240 6.0 12.0 0.00 0.00 0.00 31 1008.7
20260504185114 71 262 7.0 16.0 0.00 0.00 0.00 30 1008.7
20260504184842 71 274 7.0 17.0 0.00 0.00 0.00 32 1008.7
20260504184104 71 260 7.0 17.0 0.00 0.00 0.00 32 1008.6
20260504183835 71 308 7.0 13.0 0.00 0.00 0.00 32 1008.7
20260504183057 71 231 4.0 13.0 0.00 0.00 0.00 34 1008.7
20260504182554 71 202 5.0 12.0 0.00 0.00 0.00 32 1008.7
20260504182054 71 243 7.0 11.0 0.00 0.00 0.00 31 1008.8
20260504181548 71 244 4.0 12.0 0.00 0.00 0.00 32 1008.8
20260504181043 70 240 7.0 12.0 0.00 0.00 0.00 31 1008.8
20260504180543 70 255 5.0 11.0 0.00 0.00 0.00 32 1009.1
20260504180036 70 250 6.0 16.0 0.00 0.00 0.00 32 1009.2
20260504175534 71 241 7.0 16.0 0.00 0.00 0.00 30 1009.1
20260504175027 70 243 8.0 15.0 0.00 0.00 0.00 30 1009.0
20260504174755 71 232 6.0 13.0 0.00 0.00 0.00 33 1009.0
20260504174019 70 237 5.0 13.0 0.00 0.00 0.00 32 1009.0
20260504173518 70 245 6.0 12.0 0.00 0.00 0.00 31 1008.9
20260504173016 70 263 6.0 12.0 0.00 0.00 0.00 32 1009.1
20260504172508 70 254 6.0 11.0 0.00 0.00 0.00 33 1009.2
20260504172010 70 234 6.0 11.0 0.00 0.00 0.00 32 1009.1
20260504171506 70 245 6.0 15.0 0.00 0.00 0.00 32 1009.0
20260504170959 70 277 6.0 15.0 0.00 0.00 0.00 31 1009.0
20260504170510 70 267 6.0 13.0 0.00 0.00 0.00 34 1009.1
20260504160415 68 257 6.0 12.0 0.00 0.00 0.00 37 1009.9
20260504150838 69 246 4.0 9.0 0.00 0.00 0.00 36 1010.5
20260504150332 68 304 4.0 9.0 0.00 0.00 0.00 38 1010.5
20260504140756 65 247 3.0 8.0 0.00 0.00 0.00 41 1011.2
20260504140531 65 257 3.0 8.0 0.00 0.00 0.00 41 1011.4
20260504130709 61 285 5.0 10.0 0.00 0.00 0.00 43 1011.6
20260504130159 61 257 4.0 10.0 0.00 0.00 0.00 44 1011.6
20260504120117 55 274 4.0 10.0 0.00 0.00 0.00 51 1011.8
20260504110504 48 238 3.0 6.0 0.00 0.00 0.00 60 1012.1
20260504100409 47 274 2.0 4.0 0.00 0.00 0.00 60 1012.0
20260504081741 46 300 2.0 4.0 0.00 0.00 0.00 62 1011.7
20260504081238 46 301 2.0 3.0 0.00 0.00 0.00 62 1011.7
20260504080731 46 301 2.0 3.0 0.00 0.00 0.00 62 1011.5
20260504080225 46 301 2.0 3.0 0.00 0.00 0.00 61 1011.6
20260504070120 44 298 2.0 3.0 0.00 0.00 0.00 63 1011.7
20260504050434 38 302 1.0 2.0 0.00 0.00 0.00 71 1011.7
20260504045926 38 302 1.0 4.0 0.00 0.00 0.00 71 1011.7
20260504045413 38 302 2.0 4.0 0.00 0.00 0.00 70 1011.6
20260504044915 38 302 1.0 2.0 0.00 0.00 0.00 70 1011.5
20260504044409 39 302 0.0 2.0 0.00 0.00 0.00 70 1011.5
20260504044135 39 302 0.0 3.0 0.00 0.00 0.00 70 1011.6
20260504043358 39 302 0.0 3.0 0.00 0.00 0.00 70 1011.7
20260504042858 39 302 0.0 1.0 0.00 0.00 0.00 69 1011.6
20260504042854 39 302 2.0 3.0 0.00 0.00 0.00 70 1011.6
20260504041848 40 302 0.0 2.0 0.00 0.00 0.00 69 1011.6
20260504041334 40 302 0.0 2.0 0.00 0.00 0.00 69 1011.6
20260504040830 40 302 1.0 2.0 0.00 0.00 0.00 70 1011.6
20260504040330 40 302 1.0 2.0 0.00 0.00 0.00 70 1011.6
20260504035827 40 302 1.0 2.0 0.00 0.00 0.00 69 1011.5
20260504035325 40 302 2.0 2.0 0.00 0.00 0.00 69 1011.5
20260504035051 40 302 1.0 2.0 0.00 0.00 0.00 69 1011.5
20260504034314 40 302 1.0 2.0 0.00 0.00 0.00 69 1011.4
20260504034041 40 302 1.0 2.0 0.00 0.00 0.00 70 1011.5
20260504033302 39 302 1.0 2.0 0.00 0.00 0.00 70 1011.4
20260504032756 39 302 1.0 3.0 0.00 0.00 0.00 70 1011.3
20260504032250 39 302 1.0 3.0 0.00 0.00 0.00 71 1011.4
20260504031743 39 302 1.0 2.0 0.00 0.00 0.00 71 1011.4
20260504031238 39 302 1.0 2.0 0.00 0.00 0.00 70 1011.4
20260504030726 39 302 1.0 3.0 0.00 0.00 0.00 71 1011.3
20260504030226 39 302 1.0 3.0 0.00 0.00 0.00 71 1011.4
20260504025722 39 302 1.0 2.0 0.00 0.00 0.00 70 1011.3
20260504025216 39 302 1.0 2.0 0.00 0.00 0.00 69 1011.3
20260504024710 39 302 1.0 2.0 0.00 0.00 0.00 68 1011.1
20260504024204 39 302 1.0 2.0 0.00 0.00 0.00 68 1011.2
20260504023931 40 302 1.0 2.0 0.00 0.00 0.00 67 1011.2
20260504023153 40 302 1.0 2.0 0.00 0.00 0.00 67 1011.1
20260504022653 40 302 1.0 2.0 0.00 0.00 0.00 66 1011.0
20260504022146 41 302 1.0 2.0 0.00 0.00 0.00 66 1011.0
20260504021924 41 302 0.0 1.0 0.00 0.00 0.00 65 1011.0
20260504021407 42 302 0.0 2.0 0.00 0.00 0.00 64 1010.9
20260504020625 42 302 1.0 2.0 0.00 0.00 0.00 63 1011.0
20260504020120 42 302 0.0 0.0 0.00 0.00 0.00 61 1010.9
20260504015613 42 302 0.0 0.0 0.00 0.00 0.00 62 1010.9
20260504015052 42 302 0.0 1.0 0.00 0.00 0.00 60 1010.9
20260504014547 43 302 0.0 1.0 0.00 0.00 0.00 58 1010.9
20260504014043 43 302 0.0 2.0 0.00 0.00 0.00 58 1010.8
20260504013812 43 302 1.0 2.0 0.00 0.00 0.00 58 1010.8
20260504013022 44 302 1.0 2.0 0.00 0.00 0.00 58 1010.8
20260504012519 44 302 1.0 2.0 0.00 0.00 0.00 57 1010.7
20260504012012 44 302 1.0 2.0 0.00 0.00 0.00 56 1010.7
20260504011514 45 302 1.0 2.0 0.00 0.00 0.00 55 1010.6
20260504011008 45 302 1.0 2.0 0.00 0.00 0.00 54 1010.6
20260504010456 46 302 1.0 2.0 0.00 0.00 0.00 52 1010.5
20260504005950 47 302 1.0 2.0 0.00 0.00 0.00 52 1010.5
20260504005451 47 302 1.0 2.0 0.00 0.00 0.00 51 1010.4
20260504004946 48 302 2.0 3.0 0.00 0.00 0.00 50 1010.3
20260504004438 49 302 1.0 3.0 0.00 0.00 0.00 49 1010.1
20260504003925 49 298 2.0 6.0 0.00 0.00 0.00 47 1010.0
20260504003420 49 300 2.0 6.0 0.00 0.00 0.00 46 1010.0
20260504002921 50 319 2.0 6.0 0.00 0.00 0.00 46 1010.0
20260504002415 50 314 2.0 7.0 0.00 0.00 0.00 46 1010.0
20260504001915 50 319 3.0 7.0 0.00 0.00 0.00 45 1009.9
20260504001647 50 329 2.0 5.0 0.00 0.00 0.00 45 1009.8
20260504000904 51 316 3.0 9.0 0.00 0.00 0.00 44 1009.7
20260504000401 51 300 5.0 10.0 0.00 0.00 0.00 44 1009.6
20260503235851 51 318 4.0 12.0 0.00 0.00 0.00 44 1009.5
20260503235346 51 37 4.0 12.0 0.00 0.00 0.00 43 1009.5
20260503234840 51 337 2.0 4.0 0.00 0.00 0.00 44 1009.4
20260503234337 51 337 2.0 6.0 0.00 0.00 0.00 44 1009.3
20260503233837 52 307 2.0 8.0 0.00 0.00 0.00 43 1009.3
20260503233331 52 319 4.0 9.0 0.00 0.00 0.00 43 1009.2
20260503232831 52 68 2.0 9.0 0.00 0.00 0.00 43 1009.1
20260503232326 52 21 4.0 10.0 0.00 0.00 0.00 43 1009.0
20260503231818 52 321 4.0 10.0 0.00 0.00 0.00 43 1008.9
20260503231316 53 359 4.0 13.0 0.00 0.00 0.00 42 1008.8
20260503230815 53 294 5.0 14.0 0.00 0.00 0.00 41 1008.8
20260503230310 53 313 5.0 14.0 0.00 0.00 0.00 42 1008.8
20260503225807 53 342 5.0 13.0 0.00 0.00 0.00 43 1008.7
20260503225548 53 345 5.0 12.0 0.00 0.00 0.00 43 1008.6
20260503224759 53 257 5.0 13.0 0.00 0.00 0.00 42 1008.5
20260503224300 53 319 6.0 13.0 0.00 0.00 0.00 42 1008.4